Flag for Vietnam Weather past 2 weeks in Ho Chi Minh, Vietnam

Now
91 °F

Partly sunny.


Feels Like: 100 °F
Forecast: 78 / 93 °F
Wind: 3 mph from North

Location: Ho Chi Minh

Current Time: Sep 5, 2015 at 11:09:23 AM

Latest Report: Sep 5, 2015 at 10:30 AM


Visibility: N/A

Pressure: 29.89 "Hg

Humidity: 56%

Dew point: 73 °F

Location of Ho Chi MinhLocation

Historic Weather in Ho Chi Minh — Graph

°F

Ho Chi Minh temperature yesterday

Maximum temperature yesterday: 95 °F (at 2:00 PM)
Minimum temperature yesterday: 77 °F (at 12:00 AM)
Average temperature yesterday: 84 °F

Past Weeks' High & Low Weather Summary

 TemperatureHumidityPressure
High95 °F (Aug 30, 1:00 PM)94% (Aug 24, 4:00 AM)29.92 "Hg (Aug 24, 4:00 AM)
Low75 °F (Aug 24, 7:00 PM)44% (Sep 3, 3:00 PM)29.65 "Hg (Aug 21, 4:00 PM)
Average84 °F74%29.80 "Hg
* Reported Aug 21 10:00 AM — Sep 5 10:00 AM, Ho Chi Minh, Weather by CustomWeather, © 2015

Note: Actual official high and low records may vary slightly from our data, if they occured in-between our weather recording intervals... More about our weather records

Advertising

Ho Chi Minh weather history for previous 24 hours

 ConditionsComfort  
Time TempWeatherWind HumidityBarometerVisibility
10:00 AM
Sat, Sep 5
88 °FScattered clouds.6 mph62%29.92 "HgN/A
9:30 AM88 °FScattered clouds.5 mph66%29.92 "HgN/A
9:00 AM88 °FScattered clouds.6 mph66%29.92 "HgN/A
8:30 AM86 °FScattered clouds.6 mph70%29.92 "Hg5 mi
8:00 AM84 °FScattered clouds.6 mph79%29.92 "Hg5 mi
7:30 AM84 °FPassing clouds.5 mph79%29.92 "Hg4 mi
7:00 AM82 °FPassing clouds.1 mph84%29.89 "Hg4 mi
6:30 AM81 °FScattered clouds.2 mph89%29.89 "Hg4 mi
6:00 AM79 °FScattered clouds.2 mph89%29.89 "Hg4 mi
5:30 AM79 °FPassing clouds.1 mph84%29.89 "Hg5 mi
4:30 AM79 °FPassing clouds.1 mph84%29.86 "HgN/A
4:00 AM79 °FPassing clouds.1 mph79%29.86 "HgN/A
3:30 AM81 °FPassing clouds.1 mph74%29.86 "HgN/A
3:00 AM79 °FPassing clouds.1 mph84%29.86 "HgN/A
2:30 AM79 °FPassing clouds.2 mph84%29.86 "HgN/A
2:00 AM81 °FPassing clouds.No wind74%29.86 "HgN/A
1:30 AM79 °FPassing clouds.1 mph79%29.89 "HgN/A
1:00 AM79 °FPassing clouds.1 mph84%29.89 "HgN/A
12:30 AM81 °FPassing clouds.2 mph74%29.89 "HgN/A
12:00 AM79 °FPassing clouds.5 mph79%29.89 "HgN/A
11:30 PM
Fri, Sep 4
79 °FPassing clouds.3 mph84%29.92 "HgN/A
11:00 PM81 °FPassing clouds.3 mph79%29.92 "HgN/A
10:30 PM81 °FPassing clouds.3 mph84%29.92 "HgN/A
10:00 PM82 °FPassing clouds.5 mph79%29.92 "HgN/A
9:30 PM82 °FPassing clouds.7 mph79%29.92 "HgN/A
9:00 PM84 °FPassing clouds.5 mph74%29.92 "HgN/A
8:30 PM84 °FPassing clouds.6 mph70%29.89 "HgN/A
8:00 PM84 °FPassing clouds.5 mph70%29.86 "HgN/A
7:30 PM84 °FPassing clouds.1 mph74%29.86 "HgN/A
7:00 PM82 °FPassing clouds.5 mph79%29.83 "HgN/A
6:00 PM84 °FPartly sunny.3 mph70%29.83 "HgN/A
5:30 PM86 °FBroken clouds.5 mph70%29.80 "HgN/A
5:00 PM84 °FBroken clouds.3 mph79%29.80 "HgN/A
4:30 PM84 °FBroken clouds.5 mph74%29.80 "HgN/A
4:00 PM82 °FBroken clouds.1 mph84%29.80 "HgN/A
3:30 PM82 °FThunderstorms. Broken clouds.7 mph84%29.80 "Hg5 mi
3:00 PM81 °FThunderstorms. Scattered clouds.10 mph84%29.83 "Hg3 mi
2:30 PM88 °FThunderstorms. Partly sunny.10 mph62%29.80 "Hg4 mi
2:00 PM95 °FPartly sunny.8 mph50%29.83 "HgN/A
1:30 PM91 °FPartly sunny.7 mph56%29.83 "HgN/A
1:00 PM91 °FScattered clouds.7 mph56%29.86 "HgN/A
12:30 PM93 °FPartly sunny.5 mph53%29.86 "HgN/A
12:00 PM91 °FPartly sunny.5 mph56%29.89 "HgN/A
11:30 AM91 °FPartly sunny.6 mph56%29.89 "HgN/A
11:00 AM91 °FPartly sunny.7 mph56%29.89 "HgN/A
Weather by CustomWeather, © 2015

See weather overviewHow to use our weather pages